CAPE
1969 1886 1776 1515 1031 338 53 80 392 13 35 0 0 126 433 426 477 732 740 445 324 382 1080 1015 1103 1101 514 682 433 967 1141 764 783 727 618 781 1294 1067 1174 1068 1024 934 649
1820 1937 1647 1629 1574 889 503 67 461 5 0 0 0 0 452 657 625 1006 785 1124 578 1083 1177 1059 1302 928 694 709 551 920 1070 352 764 945 532 570 851 1315 894 822 1055 1138 690
1427 1898 1683 1544 1684 1320 1008 692 215 1 2 3 58 109 822 476 611 642 778 1033 1285 1238 1182 815 1209 828 436 593 575 648 942 873 783 800 630 247 388 416 691 904 913 960 860
1380 1473 1856 1230 1664 1546 1228 950 326 84 3 30 155 771 549 692 461 230 482 1019 569 914 656 809 1092 1022 283 667 701 560 663 814 529 110 1072 731 808 238 629 691 930 933 1000
1218 1347 1104 896 1475 1210 1202 988 760 543 272 172 792 995 1153 625 760 249 809 386 1021 421 310 1042 1175 1130 967 764 533 400 656 568 513 612 605 886 1267 1197 525 817 928 1091 1256
1341 1205 1092 1132 1402 1294 1140 1043 898 816 579 440 985 1294 1439 856 422 790 641 936 912 435 1158 1025 1183 1146 883 1018 657 603 858 574 448 925 684 1159 298 562 658 580 865 410 1088
1191 1234 1227 1073 1059 993 1074 1004 780 533 798 1135 1312 1282 1356 1377 1170 1296 1047 990 993 1056 983 1205 1105 1145 1111 1154 1113 904 909 1161 695 666 920 1154 1139 1031 838 959 601 470 843
1160 1238 1196 990 972 901 1263 938 730 1032 996 1446 1364 1371 1671 1451 1328 1488 1418 1077 1323 590 1315 1388 1435 1361 1321 1259 1138 922 1023 1058 1142 1173 820 938 992 1166 645 935 875 684 553
1037 1120 1129 1003 943 985 1045 1135 1111 1141 1212 1301 1461 1500 1938 1401 1615 1740 1408 728 1490 1053 1914 1740 1448 1507 1409 1294 1188 1001 1015 1121 999 1084 1093 888 921 1278 1381 554 523 784 348
1027 1036 1013 928 861 987 1002 995 1139 1316 1295 1407 1535 1752 1713 1752 1865 1315 1794 1413 1614 1984 2177 2126 1704 1434 1425 1491 1434 1224 1182 1048 1063 986 1086 1162 1070 811 1093 978 499 422 324
1092 1029 857 799 731 725 886 928 1097 1224 1222 1306 1277 1521 1681 1812 1544 1662 1590 1948 2280 2098 1536 1702 1545 1637 1681 1470 1676 1719 1530 1330 1370 1229 1136 1284 1409 1323 765 790 554 691 601
1169 1087 806 770 675 677 744 855 1013 1206 1248 1414 1390 1848 1972 1628 1937 1949 1928 1835 2023 2071 2135 2235 2035 1745 1715 1692 1141 1324 1583 1523 1265 1446 1403 1479 1308 1342 1439 1447 1291 1161 1161
1286 1117 841 930 900 923 941 991 1202 1205 1370 1459 1601 1903 2022 2161 1871 1730 803 719 575 289 344 683 1377 1517 1600 1654 1641 1334 803 775 910 1369 1392 1242 1147 1397 1383 1079 932 1016 1239
1377 1118 649 794 1023 1154 1247 1396 1486 1645 1743 1589 1931 2268 1938 839 866 626 572 487 467 312 250 246 233 272 264 198 355 845 976 852 928 763 666 690 914 1018 1144 1021 1002 1052 1022
1452 1195 724 986 1607 1864 2092 2220 2006 2194 1957 1832 1515 1796 1463 1181 996 840 652 504 392 319 259 202 178 118 6 3 36 130 31 37 54 72 65 521 10 0 50 196 1041 1164 1191
1505 1422 1007 1375 1800 2116 2469 2224 2135 2130 2076 1977 1836 2242 1829 1339 1158 981 706 432 246 199 151 68 15 0 0 0 0 0 0 0 0 1 3 3 0 4 0 0 0 0 0
1635 1648 1251 1397 1808 2295 2514 2493 2485 2538 2626 2452 2361 2188 1537 1350 1052 701 280 157 133 134 83 27 1 4 0 0 0 0 0 0 4 1 2 0 5 0 0 0 0 0 0
1431 1762 1572 1394 1973 2405 2631 2680 2967 2833 2693 2581 2038 1646 1284 954 567 284 221 149 35 2 1 0 2 3 0 0 0 0 0 0 2 3 4 4 1 0 0 0 0 0 0
1899 1921 1754 1732 2409 2564 2781 3096 2914 2591 2368 2023 1384 1064 681 320 368 344 258 93 7 6 4 7 7 6 0 0 0 0 0 0 1 5 10 9 6 0 0 0 0 1 2
2118 2164 1999 2096 2761 2784 2905 2992 2691 2055 1771 1160 574 338 345 207 252 290 106 31 16 16 6 6 5 0 0 0 0 0 0 0 0 0 0 0 0 0 0 0 0 1 3
2649 2653 2480 2812 2850 2759 2820 2416 1870 1508 948 463 302 279 196 257 195 23 1 3 2 0 0 4 3 8 0 0 0 0 0 0 0 0 0 0 0 0 0 0 0 0 0
2450 2435 2451 2569 2490 2366 2113 1815 1486 862 367 369 441 193 95 5 0 0 0 0 0 0 1 3 1 4 1 0 0 0 0 0 0 0 0 0 0 0 0 0 0 0 0
2310 2262 2228 2308 2150 1827 1684 1345 999 696 888 430 109 18 4 0 0 0 0 0 0 0 0 3 5 0 0 0 0 0 0 0 0 0 0 0 0 0 0 0 0 0 0
2214 2242 2360 2209 1731 1538 1290 1123 1331 1074 670 300 55 8 3 1 0 0 2 0 0 0 0 7 0 0 0 0 0 0 0 0 0 0 0 0 0 0 0 0 0 0 0
2336 2081 1891 1801 1656 1565 1165 1314 1366 863 418 285 37 6 2 0 1 1 0 0 0 0 1 1 0 0 0 0 0 0 0 0 0 0 0 0 0 0 0 0 0 0 0
2164 2248 2176 1776 1631 1349 1301 1094 1070 761 403 278 15 4 5 6 0 0 0 0 0 0 0 0 0 0 0 0 0 0 0 0 0 0 0 0 0 0 0 0 0 0 0
CIN
-1 -2 -1 -3 -1 -88 -127 -94 -31 -120 -120 -0 -0 -17 -4 -1 -2 -3 -24 -22 -54 -51 -3 -7 -2 -1 -6 -2 -4 -0 -2 -4 -7 -7 -17 -8 -1 -2 -2 -1 -1 -1 -1
-2 -0 -1 -10 -1 -8 -27 -76 -24 -115 -0 -0 -0 -7 -3 -1 -3 -8 -16 -4 -30 -3 -0 -6 -0 -9 -7 -3 -2 -0 -0 -30 -10 -2 -7 -13 -6 -1 -6 -0 -1 -0 -9
-2 -2 -3 -3 -20 -2 -2 -1 -36 -0 -0 -1 -47 -49 -2 -21 -22 -14 -9 -12 -0 -0 -1 -0 -1 -10 -18 -9 -0 -2 -1 -6 -5 -17 -11 -25 -5 -26 -22 -2 -1 -4 -1
-3 -2 -5 -1 -6 -0 -1 -1 -11 -41 -21 -62 -3 -0 -17 -11 -33 -46 -32 -8 -40 -3 -15 -5 -0 -0 -26 -3 -1 -1 -1 -6 -16 -43 -2 -11 -3 -28 -2 -17 -8 -7 -8
-2 -2 -1 -3 -3 -1 -1 -0 -0 -0 -0 -6 -0 -2 -1 -18 -16 -76 -23 -46 -0 -63 -54 -0 -0 -0 -1 -9 -2 -2 -1 -1 -6 -5 -18 -8 -4 -5 -14 -5 -4 -6 -6
-3 -26 -39 -16 -14 -7 -2 -1 -0 -0 -2 -1 -0 -0 -0 -15 -42 -22 -19 -1 -11 -50 -1 -0 -0 -0 -0 -2 -2 -1 -0 -13 -4 -10 -6 -3 -36 -19 -16 -10 -2 -30 -7
-25 -34 -38 -30 -5 -3 -11 -7 -17 -18 -3 -1 -1 -0 -1 -0 -8 -1 -2 -9 -4 -5 -16 -2 -3 -0 -0 -0 -1 -1 -1 -0 -1 -9 -1 -9 -1 -2 -1 -4 -8 -1 -9
-19 -26 -31 -39 -15 -10 -6 -9 -22 -2 -3 -2 -1 -2 -0 -10 -1 -3 -5 -20 -9 -53 -7 -0 -0 -0 -0 -0 -0 -6 -1 -5 -1 -1 -2 -18 -19 -2 -1 -3 -9 -2 -6
-15 -17 -42 -42 -29 -12 -3 -1 -2 -2 -1 -1 -2 -1 -0 -11 -4 -6 -5 -18 -19 -43 -0 -2 -0 -0 -0 -0 -0 -1 -0 -0 -0 -1 -1 -1 -1 -9 -9 -3 -2 -5 -15
-14 -13 -28 -41 -39 -8 -4 -3 -2 -1 -1 -2 -1 -2 -2 -1 -3 -23 -1 -18 -14 -0 -1 -0 -3 -1 -2 -0 -0 -2 -6 -4 -2 -2 -8 -8 -3 -5 -10 -4 -0 -1 -2
-6 -5 -16 -34 -50 -34 -10 -5 -2 -2 -1 -2 -1 -2 -1 -0 -24 -11 -11 -5 -0 -0 -25 -6 -8 -2 -2 -2 -0 -0 -0 -0 -0 -1 -0 -2 -1 -10 -3 -4 -1 -1 -1
-7 -5 -25 -49 -62 -41 -23 -11 -2 -1 -1 -1 -1 -2 -0 -9 -0 -1 -0 -0 -0 -0 -1 -0 -0 -0 -0 -0 -15 -4 -0 -0 -5 -0 -2 -0 -1 -6 -22 -14 -6 -12 -19
-28 -7 -30 -32 -47 -31 -21 -20 -5 -2 -1 -2 -1 -6 -0 -5 -2 -3 -21 -30 -52 -94 -76 -32 -1 -1 -0 -0 -0 -2 -22 -26 -16 -2 -1 -3 -7 -1 -9 -25 -30 -22 -25
-46 -13 -42 -46 -38 -26 -17 -10 -2 -1 -3 -1 -7 -1 -1 -2 -7 -27 -37 -61 -77 -110 -110 -107 -98 -70 -57 -81 -55 -12 -4 -3 -3 -9 -19 -19 -9 -8 -11 -17 -17 -18 -26
-44 -41 -55 -35 -11 -3 -0 -1 -1 -1 -1 -1 -2 -1 -1 -7 -40 -49 -58 -69 -94 -112 -132 -140 -139 -148 -46 -65 -35 -118 -188 -169 -146 -133 -129 -26 -41 -0 -20 -42 -1 -0 -0
-40 -37 -55 -23 -10 -5 -1 -1 -1 -1 -1 -1 -2 -1 -2 -6 -20 -36 -71 -112 -167 -198 -197 -217 -219 -0 -0 -0 -0 -0 -0 -0 -0 -0 -1 -0 -2 -1 -0 -0 -0 -0 -0
-58 -43 -50 -30 -3 -1 -1 -1 -0 -0 -2 -3 -5 -9 -11 -13 -32 -56 -97 -132 -153 -195 -235 -261 -0 -0 -0 -0 -0 -0 -0 -0 -0 -0 -0 -0 -6 -0 -0 -0 -0 -0 -0
-67 -48 -33 -46 -9 -2 -1 -1 -2 -7 -3 -1 -8 -5 -16 -54 -91 -154 -152 -161 -198 -1 -0 -0 -0 -0 -0 -0 -0 -0 -0 -0 -0 -0 -0 -0 -0 -0 -0 -0 -0 -0 -0
-48 -44 -34 -28 -15 -7 -2 -1 -3 -11 -13 -10 -36 -58 -127 -138 -103 -119 -124 -194 -285 -232 -0 -1 -0 -0 -0 -0 -0 -0 -0 -0 -0 -0 -0 -0 -1 -0 -0 -0 -0 -0 -0
-78 -45 -17 -5 -9 -12 -9 -6 -22 -56 -54 -81 -80 -105 -117 -132 -108 -92 -145 -203 -209 -215 -257 -1 -0 -0 -0 -0 -0 -0 -0 -0 -0 -0 -0 -0 -0 -0 -0 -0 -0 -0 -2
-73 -55 -19 -12 -21 -15 -16 -41 -60 -68 -109 -146 -131 -80 -74 -20 -42 -76 -101 -138 -181 -42 -0 -0 -1 -0 -0 -0 -0 -0 -0 -0 -0 -0 -0 -0 -0 -0 -0 -0 -0 -0 -0
-96 -80 -54 -34 -41 -50 -68 -71 -64 -116 -165 -127 -69 -98 -101 -35 -0 -0 -0 -0 -0 -0 -1 -1 -1 -1 -0 -0 -0 -0 -0 -0 -0 -0 -0 -0 -0 -0 -0 -0 -0 -0 -0
-101 -85 -76 -65 -91 -95 -90 -102 -99 -117 -49 -105 -153 -176 -0 -0 -0 -0 -0 -0 -0 -0 -0 -1 -1 -0 -0 -0 -0 -0 -0 -0 -0 -0 -0 -0 -0 -0 -0 -0 -0 -0 -0
-96 -85 -56 -81 -134 -117 -99 -74 -33 -44 -66 -113 -169 -64 -0 -0 -0 -0 -0 -0 -0 -0 -0 -0 -0 -0 -0 -0 -0 -0 -0 -0 -0 -0 -0 -0 -0 -0 -0 -0 -0 -0 -0
-44 -96 -117 -117 -101 -70 -98 -56 -23 -45 -116 -119 -158 -0 -0 -0 -0 -0 -0 -0 -0 -0 -80 -0 -0 -0 -0 -0 -0 -0 -0 -0 -0 -0 -0 -0 -0 -0 -0 -0 -0 -0 -0
-33 -29 -43 -65 -67 -82 -56 -69 -41 -38 -81 -105 -151 -0 -0 -0 -0 -0 -0 -0 -0 -0 -0 -0 -0 -0 -0 -0 -0 -0 -0 -0 -0 -0 -0 -0 -0 -0 -0 -0 -0 -0 -0
Wind_Speed
4 5 7 7 8 8 11 13 10 8 5 15 11 7 31 33 28 17 10 2 12 20 20 20 16 14 8 13 21 8 17 17 16 12 17 12 12 13 14 16 18 22 20
3 4 4 5 6 8 12 14 10 15 16 16 12 14 34 32 26 27 17 6 5 9 10 9 7 18 23 11 10 11 8 20 15 13 13 13 12 12 19 11 16 19 21
5 2 4 4 4 5 11 14 9 10 13 18 26 35 34 29 25 25 22 4 4 4 4 3 7 5 27 7 10 17 21 20 17 15 10 16 16 17 17 17 17 17 17
6 8 5 5 4 5 6 8 10 9 14 23 29 27 25 18 10 7 9 13 10 11 5 6 9 7 22 16 11 20 22 19 20 18 18 18 16 15 16 15 9 11 14
8 6 7 7 7 6 9 11 14 15 19 27 28 26 23 22 6 5 6 6 7 12 6 11 5 7 27 27 26 19 23 20 22 20 18 17 16 15 13 14 14 21 16
10 9 9 9 9 10 10 12 15 20 22 24 26 24 21 5 6 6 6 6 8 7 6 7 10 21 23 25 26 26 24 24 23 17 19 17 14 14 13 14 14 18 12
10 9 8 9 9 10 11 12 17 20 19 21 23 22 24 15 13 11 11 8 11 11 9 7 23 24 22 24 26 23 22 23 24 23 21 19 17 15 14 13 15 18 17
8 8 7 8 9 10 11 13 17 16 16 18 22 22 21 19 14 9 15 11 11 10 14 16 14 23 23 24 24 27 27 22 25 25 23 14 21 19 16 12 15 13 17
7 6 6 7 9 11 9 13 15 15 14 15 15 17 21 19 8 10 10 12 13 18 12 18 19 19 19 21 24 25 26 25 25 22 24 22 15 20 20 16 17 11 12
6 6 4 6 8 12 10 10 12 10 14 9 10 13 14 12 11 11 11 17 18 19 15 16 19 17 16 17 21 24 24 25 24 23 9 20 15 14 20 20 16 16 17
5 5 4 6 8 11 12 12 11 10 12 13 11 9 10 11 11 13 14 11 16 15 15 17 16 17 18 18 17 20 23 25 25 26 18 7 24 25 17 11 15 21 20
7 6 3 5 8 10 13 12 11 12 13 10 9 8 8 10 10 13 13 14 15 13 13 14 15 14 16 16 18 19 18 21 22 25 25 26 25 26 28 26 24 25 25
11 10 6 3 7 8 10 13 15 17 15 12 10 7 9 13 11 12 13 14 16 15 13 13 13 13 15 15 16 17 17 19 22 23 25 25 23 25 26 27 28 29 27
10 11 10 8 9 8 9 10 14 15 11 14 10 9 10 9 9 9 10 12 14 14 14 14 14 15 15 15 16 14 14 16 14 13 13 20 21 17 18 14 13 14 13
10 10 12 9 9 11 10 11 11 8 8 12 10 10 9 8 8 8 10 12 13 14 15 15 15 16 16 17 18 19 17 17 18 18 18 13 16 17 19 20 18 17 17
9 11 11 9 11 12 13 11 10 8 8 8 6 5 4 5 7 8 10 11 12 14 15 15 16 16 17 19 19 20 19 18 19 19 19 21 15 15 17 19 20 20 21
8 10 13 14 14 14 13 11 12 11 9 7 4 4 4 3 5 9 11 13 14 15 15 16 16 17 19 20 20 20 20 18 19 20 20 19 19 19 20 22 22 20 17
6 7 8 10 11 9 11 11 9 8 7 5 4 4 4 3 6 8 12 14 16 17 17 17 16 16 18 20 20 20 18 17 17 17 18 19 20 22 23 23 22 21 21
1 2 8 10 10 10 10 8 6 7 6 5 4 3 1 4 7 5 12 15 16 17 17 17 16 16 18 19 20 21 18 17 18 17 18 18 19 22 23 23 22 21 20
10 7 3 3 6 6 7 7 6 5 6 4 4 2 3 3 3 6 9 14 17 18 17 17 16 16 16 19 20 21 20 19 19 17 16 19 20 22 23 22 20 20 21
10 7 4 4 2 4 4 3 4 5 3 1 2 4 6 6 7 9 11 16 15 18 19 19 17 17 18 18 20 20 18 19 18 18 15 17 20 21 21 21 21 22 24
9 7 5 4 2 2 2 3 3 3 4 2 4 6 9 12 12 11 12 15 18 20 22 20 20 16 16 17 18 19 19 18 18 18 19 19 21 20 20 22 21 20 20
9 7 6 5 4 4 2 3 1 5 2 2 3 5 7 7 5 5 9 10 16 20 20 21 20 16 15 14 15 17 17 17 17 19 19 19 19 19 17 19 18 20 20
10 9 8 8 7 6 5 2 1 1 2 1 2 4 5 7 7 7 6 9 14 21 21 19 17 17 15 14 15 15 15 16 16 17 16 19 18 19 17 17 18 19 20
12 10 10 9 8 7 6 6 2 2 1 2 2 2 4 5 6 7 8 13 16 19 19 13 13 15 17 16 18 19 20 20 21 19 16 16 17 16 17 18 18 19 19
14 11 9 9 9 7 6 4 2 1 1 1 1 1 2 2 4 5 8 10 9 12 14 15 14 15 14 15 17 19 19 20 19 16 16 17 17 17 18 18 18 18 19
Wind_Direction
77 116 137 144 142 156 167 175 180 184 231 180 192 243 248 225 256 297 324 72 181 209 207 208 203 168 112 149 192 71 171 175 162 61 302 64 84 80 99 112 134 164 152
50 72 105 92 151 166 176 177 193 173 181 191 194 182 231 235 264 270 303 358 146 167 172 170 162 179 209 130 116 117 3 227 191 85 64 49 67 54 189 68 117 140 156
3 96 95 105 133 145 173 179 180 172 175 176 180 194 230 250 266 266 285 99 99 121 16 11 340 337 212 111 118 158 181 207 225 283 102 114 129 88 136 148 126 130 136
15 12 103 61 106 119 117 134 152 152 159 164 167 171 178 167 148 135 156 333 354 338 63 4 333 324 259 271 131 166 180 183 195 212 165 168 185 113 99 131 112 103 125
25 36 41 41 57 70 108 121 135 139 144 148 159 170 172 181 351 72 92 37 34 340 99 141 31 329 242 236 227 157 181 183 209 189 191 168 176 184 90 103 119 183 146
17 24 39 50 68 96 87 101 120 128 132 146 167 170 171 103 88 84 82 103 19 105 95 90 135 220 245 232 221 218 196 195 209 260 195 177 129 114 101 150 104 141 153
7 26 48 64 84 91 89 95 117 126 132 145 166 165 176 145 140 130 139 63 9 9 35 353 215 226 244 236 236 192 176 186 207 211 208 202 193 169 150 148 154 143 127
10 28 49 73 94 95 101 108 128 128 133 146 163 166 167 164 140 109 319 355 359 28 337 287 279 231 235 236 244 230 211 182 206 218 214 167 211 215 180 44 209 58 257
26 20 37 73 99 109 108 116 126 138 138 141 140 143 164 157 7 29 49 359 321 278 350 259 250 251 254 248 240 234 223 241 209 189 209 203 163 201 218 168 189 70 112
32 17 30 78 98 119 113 112 118 114 133 113 112 120 126 114 88 65 28 293 276 269 312 288 261 271 278 268 254 244 246 236 246 221 129 198 173 159 201 210 179 182 204
63 36 17 90 104 117 121 119 116 113 122 128 114 95 98 98 88 111 110 5 288 302 306 293 292 282 272 271 280 264 253 240 238 235 282 126 215 226 179 159 192 221 214
61 65 31 97 111 115 122 121 119 116 123 112 100 89 77 88 72 96 97 106 160 327 325 322 296 306 289 292 282 275 281 271 268 250 257 249 233 224 244 250 278 264 271
102 92 77 82 106 109 112 117 122 129 123 114 105 67 87 113 80 81 52 53 70 66 309 298 307 344 285 297 305 301 297 291 282 282 263 260 280 268 265 264 273 265 286
105 108 100 99 105 106 108 112 120 123 111 123 101 99 100 68 45 36 24 30 25 14 354 335 324 319 317 319 313 333 340 325 345 350 357 299 297 311 310 324 328 327 332
118 120 122 109 111 118 117 120 120 113 106 121 104 104 94 65 42 19 350 340 347 353 348 349 350 345 337 322 308 310 328 327 323 327 326 345 340 336 327 320 327 328 326
132 130 130 126 130 134 132 127 123 116 111 116 101 75 29 36 34 2 347 346 345 342 339 340 337 336 340 332 326 315 322 327 321 321 321 317 339 336 334 329 323 321 319
140 147 147 144 143 142 140 138 133 128 123 119 93 90 75 28 20 335 330 329 327 328 330 332 338 336 334 324 322 320 324 330 331 326 324 324 336 330 328 326 324 326 328
146 155 151 147 146 144 147 145 137 135 134 120 116 99 87 18 335 334 315 317 316 317 320 325 332 339 335 330 329 326 330 337 339 338 336 332 333 330 327 325 326 326 327
79 203 157 151 148 151 153 152 154 153 154 161 163 144 105 343 317 334 311 305 305 309 317 320 326 333 333 332 332 329 338 340 338 341 340 339 341 334 330 329 329 331 333
313 303 157 147 147 157 161 165 174 189 184 196 216 239 275 295 267 305 301 304 296 302 307 311 317 325 337 332 329 326 330 334 337 342 350 344 340 338 337 336 336 335 335
318 319 313 289 201 177 169 197 198 200 206 231 290 306 313 310 309 303 293 290 297 296 295 298 307 316 322 332 329 331 336 335 339 341 351 351 346 344 341 339 337 333 330
314 312 320 310 301 277 275 270 225 184 157 311 321 319 314 313 311 304 286 288 294 296 283 287 295 312 324 332 336 338 340 339 339 340 343 344 342 344 343 340 339 340 339
319 316 316 322 315 320 308 306 224 151 156 340 334 343 349 357 356 341 320 312 273 273 278 281 286 304 323 336 346 348 351 347 344 341 342 343 345 345 345 347 349 345 343
316 317 314 306 311 311 308 325 350 2 334 352 32 49 39 37 53 46 17 312 282 266 273 282 292 296 319 340 347 349 351 351 350 346 346 346 347 350 349 351 350 348 348
310 313 307 307 306 308 298 314 324 337 76 106 76 31 35 56 62 57 357 297 280 274 279 293 302 307 309 329 336 336 337 338 338 338 344 347 349 350 352 354 353 353 352
301 301 304 308 309 307 306 303 307 289 271 271 322 344 37 49 22 15 354 346 322 310 309 302 312 320 339 345 343 341 340 338 339 345 344 344 345 346 348 349 350 352 352